Simultaneous Nadir Overpasses (SNOs) Predictions

Prediction of SNOs between FY3D and NOAA-19 Satellite Orbit:

Table of predicted SNOs for the next 14.0 days since TLE Epoch: 10/1/2022
Index Date (FY3D) Time (FY3D) Lat,Lon (FY3D) SZA (FY3D ) Date (NOAA-19) Time (NOAA-19) Lat,Lon (NOAA-19) SZA (NOAA-19 ) Distance(km) Time Diff (sec)
1 10/01/2022 06:15:05 77.21, 71.76 80.62 10/01/2022 06:15:12 77.22, 71.67 80.63 2.33 7
2 10/01/2022 07:05:51 -77.23,-121.01 99.35 10/01/2022 07:06:10 -77.22,-121.08 99.37 2.27 19
3 10/01/2022 07:56:37 77.24, 46.25 80.68 10/01/2022 07:57:11 77.25, 46.32 80.68 1.77 34
4 10/01/2022 08:47:23 -77.26,-146.52 99.29 10/01/2022 08:48:09 -77.25,-146.43 99.32 2.76 46
5 10/01/2022 09:38:08 77.23, 20.92 80.70 10/01/2022 09:39:11 77.24, 20.77 80.70 3.76 63
6 10/01/2022 10:28:54 -77.25,-171.85 99.28 10/01/2022 10:30:08 -77.28,-171.79 99.27 3.29 74



Historial Predications of SNOs between FY3D and NOAA-19
